SL-14 DEB, 45315

Orbit data source: Space-Track

SL-14 DEB, 45315 is space debris in LEO originally from a launch on Thu, 15 Aug 1991 UTC launched from the Plesetsk Missile And Space Complex (PKMTR). Debris objects in space refer to the collection of defunct objects orbiting the Earth. Examples of debris include non-operational satellites, rocket bodies, and fragments generated from explosions, collisions, or faulty payload assembly.

Loading next visibility...
Identifier
45315, 1991-056BD
Orbit
LEO
Country
Flag of CISCIS
Related business
Manufacturer
Unknown
Mission
Spacecraft
Bus & Motor
Unknown
Mass
Unknown
Launch date (UTC)
1991-08-15 (34 years ago)
Launch vehicle
Unknown
Launch site
Plesetsk Missile And Space Complex (PKMTR)
Object type
Payload
Rocket body
Debris
Shape & HBR
Unknown shape, 0.1 m
Radar Cross Section
Small (<0.1 m²)

Expand to show TLE details & history
Last TLE update: 1 day ago

TLE from 1 day ago
0 SL-14 DEB
1 45315U 91056BD  25314.92319356  .00000281  00000-0  71431-3 0  9992
2 45315  82.5579 300.7630 0030040  23.1655 337.0813 13.15401257273910
Epoch: 2025-11-10T22:09Z
TLE epoch observation values (Epoch: 2025-11-10T22:09:23.923Z)
Latitude
-0.00003°
Longitude
-81.90382°
Altitude
1,184.174 km
Speed
7.272 km/s
True Right ascension
20h 03m 03s
True Declination
0° 00' 00"
Sunlit
Object was in daylight at epoch
Visualization orbit readout
Latitude
Unknown
Longitude
Unknown
Altitude
Unknown
Speed
Unknown
Apparent Right ascension
Unknown
Apparent Declination
Unknown
Sunlit
N/A
Visualization observer readout
Local Sidereal Time
01:02:44
Azimuth
Unknown
Elevation
Unknown
Doppler factor
Unknown
Orbital elements
Apogee altitude
1,222.347 km
Perigee altitude
1,176.82 km
Semi-major axis
7,577.72 km
Eccentricity
0.003
Inclination
82.5579°
RAAN
300.763°
Arg. of periapsis
23.1655°
True anomaly
336.94678°
Mean anomaly
337.0813°
Eccentric anomaly
337.01409°
Mean motion
3.2903 °/min
Orbital period
109.41 mins
BSTAR
0.00071431
Loading maneuver chart data...
Computing Atmospheric mass density...
Loading historical data...
Loading historical data...
Loading historical data...
Loading historical data...
Loading historical data...
Loading historical data...
Loading historical data...

Documentation

Showing up to 5 results
|